Regional Weather Roundup
Issued by NWS Cleveland, OH

Home | Current Version | Previous Version | Graphics & Text | Print | Product List | Glossary On
Versions: 1 2 3 4 5 6 7 8 9 10 11 12 13 14 15 16 17 18 19 20 21 22 23 24 25 26 27 28 29 30 31 32 33 34 35 36 37 38 39 40 41 42 43 44 45 46 47 48 49 50
000
ASUS41 KCLE 311212
RWRCLE
OHIO REGIONAL WEATHER ROUNDUP
NATIONAL WEATHER SERVICE WILMINGTON, OH
800 AM EDT WED AUG 31 2016

NOTE: "FAIR" INDICATES FEW OR NO CLOUDS BELOW 12,000 FEET WITH NO
SIGNIFICANT WEATHER AND/OR OBSTRUCTIONS TO VISIBILITY.

OHZ001>008-015>018-024>027-034-035-043-044-311300-
   NORTHWEST OHIO

CITY           SKY/WX    TMP DP  RH WIND       PRES   REMARKS
DEFIANCE       CLOUDY    70  68  93 CALM      30.03R FOG
FINDLAY        FOG       70  67  90 S3        30.02R VSB 1/4
TOLEDO EXPRESS CLOUDY    68  68 100 SW6       30.01S FOG
TOLEDO EXEC    FAIR      70  70 100 SW6       30.01S FOG
LIMA           FAIR      68  68 100 S3        30.03S FOG
$$

OHZ009>014-019>023-028>033-038-089-311300-
   NORTHEAST OHIO

CITY           SKY/WX    TMP DP  RH WIND       PRES   REMARKS
CLE-HOPKINS    CLOUDY    73  66  78 S3        30.02F
CLE-LAKEFRONT  CLOUDY    76  68  76 SW6       29.99S
CUY CO. ARPT   CLOUDY    75  68  78 SW5       30.01S
LORAIN-ELYRIA  CLOUDY    70  67  90 W5        30.02S
ASHTABULA      LGT RAIN  67  67 100 SW3       30.02R
AKRON-CANTON   CLOUDY    71  62  73 W6        30.03S
WOOSTER        CLOUDY    68  66  93 CALM      30.04S
MANSFIELD      CLOUDY    70  68  93 S3        30.04S
YOUNGSTOWN     LGT RAIN  68  60  75 SW3       30.02S
$$

OHZ042-051>053-060>062-070>072-077>081-311300-
  SOUTHWEST OHIO

CITY           SKY/WX    TMP DP  RH WIND       PRES   REMARKS
CINC-COVINGTON MOCLDY    71  70  96 N3        30.03R
CINC-LUNKEN    FAIR      69  69 100 NE6       30.03R
HAMILTON       MOCLDY    71  69  93 CALM      30.04R
DAYTON         MOCLDY    70  68  93 CALM      30.05S
WRIGHT-PAT AFB MOCLDY    71  70  99 N3        30.03S
DAYTON GENERAL MOCLDY    72  67  84 NW3       30.04R
WILMINGTON     CLOUDY    70  69  97 N5        30.04R FOG
$$

OHZ036-037-039>041-045>050-054>059-063>069-073>076-082>088-311300-
  CENTRAL AND SOUTHEAST OHIO

CITY           SKY/WX    TMP DP  RH WIND       PRES   REMARKS
COLUMBUS       PTSUNNY   71  65  81 N3        30.02R
OSU AIRPORT    PTSUNNY   73  69  87 NW5       30.02S
BOLTON FIELD   PTSUNNY   70  70 100 NW5       30.03S
RICKENBACK AFB PTSUNNY   67  66  97 CALM      30.01F
NEWARK         FAIR      69  67  93 CALM      30.02S
MARION         FAIR      71  68  90 CALM      30.04S FOG
LANCASTER      FAIR      68  66  93 CALM      30.02S
ZANESVILLE     CLOUDY    67  64  90 CALM      30.03S
NEW PHILLY     CLOUDY    69  63  81 CALM      30.03F
$$



USA.gov is the U.S. government's official web portal to all federal, state and local government web resources and services.